SL-16 DEB, 22617

Orbit data source: Space-Track

SL-16 DEB, 22617 is space debris in LEO originally from a launch on Fri, 26 Mar 1993 UTC launched from the Tyuratam Missile And Space Complex (TTMTR). Debris objects in space refer to the collection of defunct objects orbiting the Earth. Examples of debris include non-operational satellites, rocket bodies, and fragments generated from explosions, collisions, or faulty payload assembly.

Loading next visibility...
Identifier
22617, 1993-016AB
Orbit
LEO
Last TLE update
12 hours ago
Origin
Manufacturer
Unknown
Mission
Spacecraft
Bus & Motor
Unknown
Mass
Unknown
Launch date (UTC)
1993-03-26 (32 years ago)
Launch vehicle
Unknown
Launch site
Tyuratam Missile And Space Complex (TTMTR)
Object type
Payload
Rocket body
Debris
Shape & HBR
Unknown
Radar Cross Section
Small (<0.1 m²)

Expand to show TLE details & history

TLE from 12 hours ago
0 SL-16 DEB
1 22617U 93016AB  25181.86527429  .00000453  00000-0  36352-3 0  9991
2 22617  70.9996  93.5191 0134615 303.3755 131.2523 13.91914067631620
Epoch: 2025-06-30T20:45Z
TLE epoch observation values (Epoch: 2025-06-30T20:45:59.698Z)
Latitude
66.52198°
Longitude
-85.08933°
Altitude
998.433 km
Speed
7.326 km/s
True Right ascension
09h 42m 18s
True Declination
66° 24' 01"
Sunlit
Object was in daylight at epoch
Visualization orbit readout
Latitude
36.77483°
Longitude
26.97307°
Altitude
1,019.641 km
Speed
7.298 km/s
Apparent Right ascension
13h 41m 18s
Apparent Declination
3° 50' 05"
Sunlit
Object is in daylight
Visualization observer readout
Local Sidereal Time
20:47:47
Azimuth
283.776° WNW
Elevation
-10.134°
Doppler factor
1
Orbital elements
Apogee altitude
1,018.12 km
Perigee altitude
821.636 km
Semi-major axis
7,298.015 km
Eccentricity
0.01346
Inclination
70.9996°
RAAN
93.5191°
Arg. of periapsis
303.3755°
True anomaly
Unknown
Mean anomaly
131.2523°
Eccentric anomaly
Unknown
Mean motion
3.48126 °/min
Orbital period
103.41 mins
BSTAR
0.00036352
Loading maneuver chart data...
Loading SW <> Apogee altitude chart data...
Loading historical data...
Loading historical data...
Loading historical data...
Loading historical data...
Loading historical data...
Loading historical data...
Loading historical data...

SL-16 DEB Visibility forecast

Observer location: undefined°, undefined°

Span
Click to sort rows by Start time (UTC) header in descending order
Start Az.
Max El. time (UTC)
Max El. Az.
Max El.
End time (UTC)
End Az.
11 mins2025-07-01 18:55:33.132Z179.918° S2025-07-01 19:01:33.132Z91.713° ESE37.364°2025-07-01 19:06:33.132Z34.551° NE
8 mins2025-07-01 20:43:33.132Z259.094° W2025-07-01 20:47:33.132Z311.208° NW24.268°2025-07-01 20:51:33.132Z356.911° N
10 mins2025-07-02 04:00:33.132Z2.755° NNE2025-07-02 04:04:33.132Z49.03° ENE26.678°2025-07-02 04:10:33.132Z115.428° SE
10 mins2025-07-02 05:46:33.132Z319.928° NNW2025-07-02 05:50:33.132Z267.084° W36.769°2025-07-02 05:56:33.132Z183.207° SSW
|